Time,TemperatureF,DewpointF,PressureIn,WindDirection,WindDirectionDegrees,WindSpeedMPH,WindSpeedGustMPH,Humidity,HourlyPrecipIn,Conditions,Clouds,dailyrainin,SolarRadiationWatts/m^2,SoftwareType,DateUTC
2013-07-16 00:12:00,65.3,49.0,30.09,NNW,343,0.0,1.0,57,0.00,,,0.00,0,weatherlink.com 1.10,2013-07-15 22:12:00,
2013-07-16 00:42:00,64.3,49.0,30.09,North,355,0.0,1.0,59,0.00,,,0.00,0,weatherlink.com 1.10,2013-07-15 22:42:00,
2013-07-16 01:12:00,64.4,50.0,30.10,NNW,345,0.0,4.0,59,0.00,,,0.00,0,weatherlink.com 1.10,2013-07-15 23:12:00,
2013-07-16 01:42:00,63.3,50.0,30.10,NNE,15,0.0,2.0,62,0.00,,,0.00,0,weatherlink.com 1.10,2013-07-15 23:42:00,
2013-07-16 01:57:00,63.0,50.0,30.10,East,93,0.0,2.0,63,0.00,,,0.00,0,weatherlink.com 1.10,2013-07-15 23:57:00,
2013-07-16 02:12:00,62.8,50.0,30.10,NE,44,0.0,2.0,63,0.00,,,0.00,0,weatherlink.com 1.10,2013-07-16 00:12:00,
2013-07-16 02:27:00,62.6,50.0,30.10,SSW,209,0.0,3.0,64,0.00,,,0.00,0,weatherlink.com 1.10,2013-07-16 00:27:00,
2013-07-16 02:57:00,62.4,50.0,30.11,SW,219,1.0,2.0,64,0.00,,,0.00,0,weatherlink.com 1.10,2013-07-16 00:57:00,
2013-07-16 03:12:00,62.5,50.0,30.10,ENE,59,0.0,3.0,64,0.00,,,0.00,0,weatherlink.com 1.10,2013-07-16 01:12:00,
2013-07-16 03:27:00,62.3,50.0,30.11,WNW,290,0.0,3.0,64,0.00,,,0.00,0,weatherlink.com 1.10,2013-07-16 01:27:00,
2013-07-16 03:42:00,61.9,50.0,30.11,SW,229,0.0,1.0,65,0.00,,,0.00,0,weatherlink.com 1.10,2013-07-16 01:42:00,
2013-07-16 03:58:00,61.6,50.0,30.11,West,263,0.0,3.0,66,0.00,,,0.00,0,weatherlink.com 1.10,2013-07-16 01:58:00,
2013-07-16 04:13:00,61.3,50.0,30.12,WSW,252,0.0,2.0,67,0.00,,,0.00,0,weatherlink.com 1.10,2013-07-16 02:13:00,
2013-07-16 04:28:00,60.9,50.0,30.12,NNW,346,0.0,2.0,68,0.00,,,0.00,0,weatherlink.com 1.10,2013-07-16 02:28:00,
2013-07-16 04:43:00,60.5,50.0,30.13,WSW,245,0.0,3.0,69,0.00,,,0.00,0,weatherlink.com 1.10,2013-07-16 02:43:00,
2013-07-16 04:58:00,60.3,50.0,30.13,North,360,0.0,2.0,69,0.00,,,0.00,0,weatherlink.com 1.10,2013-07-16 02:58:00,
2013-07-16 05:13:00,60.1,50.0,30.13,SSW,196,0.0,1.0,70,0.00,,,0.00,5,weatherlink.com 1.10,2013-07-16 03:13:00,
2013-07-16 05:28:00,59.9,50.0,30.14,SSW,196,0.0,0.0,71,0.00,,,0.00,14,weatherlink.com 1.10,2013-07-16 03:28:00,
2013-07-16 05:43:00,60.2,51.0,30.14,South,188,0.0,1.0,71,0.00,,,0.00,21,weatherlink.com 1.10,2013-07-16 03:43:00,
2013-07-16 05:58:00,61.0,51.0,30.14,WSW,244,0.0,2.0,70,0.00,,,0.00,28,weatherlink.com 1.10,2013-07-16 03:58:00,
2013-07-16 06:13:00,62.8,52.0,30.15,West,280,1.0,3.0,68,0.00,,,0.00,102,weatherlink.com 1.10,2013-07-16 04:13:00,
2013-07-16 06:28:00,65.3,53.0,30.15,North,350,0.0,5.0,64,0.00,,,0.00,148,weatherlink.com 1.10,2013-07-16 04:28:00,
2013-07-16 06:58:00,68.3,53.0,30.16,NNW,333,1.0,6.0,58,0.00,,,0.00,230,weatherlink.com 1.10,2013-07-16 04:58:00,
2013-07-16 07:13:00,69.4,53.0,30.16,NNW,328,3.0,4.0,56,0.00,,,0.00,274,weatherlink.com 1.10,2013-07-16 05:13:00,
2013-07-16 07:28:00,71.4,54.0,30.16,NNW,345,4.0,5.0,54,0.00,,,0.00,308,weatherlink.com 1.10,2013-07-16 05:28:00,
2013-07-16 07:43:00,71.0,53.0,30.16,SW,234,0.0,4.0,53,0.00,,,0.00,346,weatherlink.com 1.10,2013-07-16 05:43:00,
2013-07-16 07:58:00,72.4,53.0,30.16,North,350,2.0,5.0,51,0.00,,,0.00,385,weatherlink.com 1.10,2013-07-16 05:58:00,
2013-07-16 08:13:00,73.8,53.0,30.16,North,360,4.0,7.0,49,0.00,,,0.00,429,weatherlink.com 1.10,2013-07-16 06:13:00,
2013-07-16 08:29:00,74.2,54.0,30.16,North,350,4.0,5.0,49,0.00,,,0.00,471,weatherlink.com 1.10,2013-07-16 06:29:00,
2013-07-16 09:29:00,79.2,54.0,30.18,NNE,19,3.0,7.0,42,0.00,,,0.00,621,weatherlink.com 1.10,2013-07-16 07:29:00,
2013-07-16 09:44:00,77.2,51.0,30.17,NNE,17,3.0,8.0,40,0.00,,,0.00,659,weatherlink.com 1.10,2013-07-16 07:44:00,
2013-07-16 09:59:00,76.9,51.0,30.18,NE,40,6.0,11.0,41,0.00,,,0.00,691,weatherlink.com 1.10,2013-07-16 07:59:00,
2013-07-16 10:14:00,75.9,51.0,30.18,ESE,123,2.0,10.0,42,0.00,,,0.00,717,weatherlink.com 1.10,2013-07-16 08:14:00,
2013-07-16 10:29:00,76.8,52.0,30.18,NE,55,3.0,9.0,42,0.00,,,0.00,742,weatherlink.com 1.10,2013-07-16 08:29:00,
2013-07-16 10:44:00,78.3,53.0,30.18,NNE,26,6.0,10.0,41,0.00,,,0.00,765,weatherlink.com 1.10,2013-07-16 08:44:00,
2013-07-16 10:59:00,80.2,53.0,30.18,NNW,345,0.0,11.0,39,0.00,,,0.00,786,weatherlink.com 1.10,2013-07-16 08:59:00,
2013-07-16 11:14:00,78.0,52.0,30.18,North,11,7.0,11.0,40,0.00,,,0.00,803,weatherlink.com 1.10,2013-07-16 09:14:00,
2013-07-16 11:29:00,82.1,52.0,30.18,NNE,26,4.0,9.0,35,0.00,,,0.00,826,weatherlink.com 1.10,2013-07-16 09:29:00,
2013-07-16 11:44:00,84.0,54.0,30.18,North,5,6.0,9.0,35,0.00,,,0.00,838,weatherlink.com 1.10,2013-07-16 09:44:00,
2013-07-16 11:59:00,83.2,53.0,30.18,NNW,348,3.0,9.0,35,0.00,,,0.00,853,weatherlink.com 1.10,2013-07-16 09:59:00,
2013-07-16 12:15:00,82.6,54.0,30.18,North,5,1.0,14.0,38,0.00,,,0.00,860,weatherlink.com 1.10,2013-07-16 10:15:00,
2013-07-16 12:30:00,83.9,54.0,30.17,NNE,25,0.0,12.0,36,0.00,,,0.00,872,weatherlink.com 1.10,2013-07-16 10:30:00,
2013-07-16 12:45:00,82.4,53.0,30.18,North,360,6.0,11.0,36,0.00,,,0.00,886,weatherlink.com 1.10,2013-07-16 10:45:00,
2013-07-16 13:00:00,83.4,55.0,30.17,SW,215,1.0,6.0,38,0.00,,,0.00,900,weatherlink.com 1.10,2013-07-16 11:00:00,
2013-07-16 13:15:00,79.4,51.0,30.17,NNE,14,4.0,13.0,37,0.00,,,0.00,882,weatherlink.com 1.10,2013-07-16 11:15:00,
2013-07-16 13:30:00,83.4,54.0,30.16,NW,305,1.0,3.0,37,0.00,,,0.00,919,weatherlink.com 1.10,2013-07-16 11:30:00,
2013-07-16 13:45:00,81.5,53.0,30.16,North,355,0.0,10.0,38,0.00,,,0.00,895,weatherlink.com 1.10,2013-07-16 11:45:00,
2013-07-16 14:00:00,83.2,53.0,30.16,NNE,19,4.0,11.0,35,0.00,,,0.00,970,weatherlink.com 1.10,2013-07-16 12:00:00,
2013-07-16 14:15:00,82.9,53.0,30.15,North,9,0.0,8.0,36,0.00,,,0.00,824,weatherlink.com 1.10,2013-07-16 12:15:00,
2013-07-16 14:30:00,83.9,54.0,30.15,NE,44,1.0,6.0,36,0.00,,,0.00,824,weatherlink.com 1.10,2013-07-16 12:30:00,
2013-07-16 15:00:00,81.7,51.0,30.15,North,360,4.0,9.0,34,0.00,,,0.00,141,weatherlink.com 1.10,2013-07-16 13:00:00,
2013-07-16 15:15:00,82.5,53.0,30.15,North,355,4.0,7.0,36,0.00,,,0.00,721,weatherlink.com 1.10,2013-07-16 13:15:00,
2013-07-16 15:30:00,81.6,52.0,30.14,North,360,0.0,7.0,36,0.00,,,0.00,664,weatherlink.com 1.10,2013-07-16 13:30:00,
2013-07-16 15:45:00,81.0,52.0,30.14,West,264,1.0,8.0,37,0.00,,,0.00,125,weatherlink.com 1.10,2013-07-16 13:45:00,
2013-07-16 16:00:00,80.9,53.0,30.14,NNE,30,0.0,3.0,38,0.00,,,0.00,606,weatherlink.com 1.10,2013-07-16 14:00:00,
2013-07-16 16:15:00,81.7,52.0,30.14,NNE,15,3.0,4.0,36,0.00,,,0.00,594,weatherlink.com 1.10,2013-07-16 14:15:00,
2013-07-16 16:30:00,80.8,52.0,30.14,North,349,3.0,9.0,37,0.00,,,0.00,503,weatherlink.com 1.10,2013-07-16 14:30:00,
2013-07-16 16:45:00,80.7,50.0,30.13,NNE,23,2.0,7.0,34,0.00,,,0.00,93,weatherlink.com 1.10,2013-07-16 14:45:00,
2013-07-16 17:00:00,80.5,51.0,30.13,SW,230,1.0,5.0,36,0.00,,,0.00,79,weatherlink.com 1.10,2013-07-16 15:00:00,
2013-07-16 17:15:00,80.2,52.0,30.13,NNE,13,0.0,6.0,37,0.00,,,0.00,72,weatherlink.com 1.10,2013-07-16 15:15:00,
2013-07-16 17:30:00,80.0,51.0,30.12,WSW,249,2.0,2.0,36,0.00,,,0.00,72,weatherlink.com 1.10,2013-07-16 15:30:00,
2013-07-16 17:45:00,79.5,51.0,30.12,North,351,4.0,7.0,37,0.00,,,0.00,62,weatherlink.com 1.10,2013-07-16 15:45:00,
2013-07-16 18:00:00,79.5,52.0,30.13,North,351,1.0,3.0,38,0.00,,,0.00,53,weatherlink.com 1.10,2013-07-16 16:00:00,
2013-07-16 18:15:00,79.3,51.0,30.13,North,5,0.0,5.0,38,0.00,,,0.00,44,weatherlink.com 1.10,2013-07-16 16:15:00,
2013-07-16 18:30:00,78.6,52.0,30.12,NW,323,0.0,2.0,40,0.00,,,0.00,39,weatherlink.com 1.10,2013-07-16 16:30:00,
2013-07-16 18:45:00,78.2,53.0,30.13,NW,325,0.0,1.0,42,0.00,,,0.00,35,weatherlink.com 1.10,2013-07-16 16:45:00,
2013-07-16 19:00:00,78.0,54.0,30.12,NW,323,0.0,1.0,43,0.00,,,0.00,32,weatherlink.com 1.10,2013-07-16 17:00:00,
2013-07-16 19:15:00,77.2,54.0,30.13,NW,323,0.0,1.0,45,0.00,,,0.00,28,weatherlink.com 1.10,2013-07-16 17:15:00,
2013-07-16 19:30:00,76.0,54.0,30.12,North,360,0.0,1.0,47,0.00,,,0.00,23,weatherlink.com 1.10,2013-07-16 17:30:00,
2013-07-16 19:45:00,74.9,54.0,30.13,NW,323,0.0,1.0,49,0.00,,,0.00,19,weatherlink.com 1.10,2013-07-16 17:45:00,
2013-07-16 20:00:00,74.0,54.0,30.13,North,360,0.0,1.0,50,0.00,,,0.00,14,weatherlink.com 1.10,2013-07-16 18:00:00,
2013-07-16 20:15:00,73.3,54.0,30.13,NW,323,0.0,1.0,51,0.00,,,0.00,9,weatherlink.com 1.10,2013-07-16 18:15:00,
2013-07-16 20:30:00,72.5,54.0,30.13,North,360,0.0,1.0,52,0.00,,,0.00,5,weatherlink.com 1.10,2013-07-16 18:30:00,
2013-07-16 20:45:00,71.6,54.0,30.14,NW,321,0.0,1.0,54,0.00,,,0.00,0,weatherlink.com 1.10,2013-07-16 18:45:00,
2013-07-16 21:00:00,70.4,53.0,30.14,North,360,0.0,1.0,55,0.00,,,0.00,0,weatherlink.com 1.10,2013-07-16 19:00:00,
2013-07-16 21:30:00,70.0,53.0,30.15,WNW,294,0.0,1.0,55,0.00,,,0.00,0,weatherlink.com 1.10,2013-07-16 19:30:00,
2013-07-16 21:45:00,70.4,53.0,30.15,WNW,294,0.0,1.0,54,0.00,,,0.00,0,weatherlink.com 1.10,2013-07-16 19:45:00,
2013-07-16 22:00:00,70.4,54.0,30.15,WNW,294,0.0,0.0,56,0.00,,,0.00,0,weatherlink.com 1.10,2013-07-16 20:00:00,
2013-07-16 22:45:00,68.3,54.0,30.15,WNW,296,0.0,0.0,60,0.00,,,0.00,0,weatherlink.com 1.10,2013-07-16 20:45:00,
2013-07-16 23:15:00,67.0,53.0,30.15,WNW,295,0.0,0.0,61,0.00,,,0.00,0,weatherlink.com 1.10,2013-07-16 21:15:00,
2013-07-16 23:30:00,66.7,54.0,30.15,WNW,294,0.0,0.0,64,0.00,,,0.00,0,weatherlink.com 1.10,2013-07-16 21:30:00,
2013-07-16 23:45:00,66.3,54.0,30.15,North,360,0.0,0.0,64,0.00,,,0.00,0,weatherlink.com 1.10,2013-07-16 21:45:00,